Flag for Central African Republic Weather past 2 weeks in Bimbo, Central African Republic

Now
77 °F

Passing clouds.


Feels Like: 78 °F
Forecast: 73 / 91 °F
Wind: 3 mph from North

Location: Bangui Airport

Current Time: Jul 5, 2015 at 10:05:39 PM

Latest Report: Jul 5, 2015 at 8:00 PM


Visibility: N/A

Pressure: 29.92 "Hg

Humidity: 89%

Dew point: 73 °F

Location of BimboLocation

Historic Weather in Bimbo — Graph

°F

Bimbo temperature yesterday

Maximum temperature yesterday: 90 °F (at 2:00 PM)
Minimum temperature yesterday: 72 °F (at 1:00 AM)
Average temperature yesterday: 80 °F

Past Weeks' High & Low Weather Summary

 TemperatureHumidityPressure
High91 °F (Jun 24, 2:00 PM)100% (Jun 21, 3:00 AM)30.07 "Hg (Jun 21, 3:00 AM)
Low72 °F (Jun 21, 3:00 AM)55% (Jun 21, 4:00 PM)29.83 "Hg (Jul 1, 5:00 PM)
Average79 °F86%29.96 "Hg
* Reported Jun 20 8:00 PM — Jul 5 8:00 PM, Bimbo, Weather by CustomWeather, © 2015

Note: Actual official high and low records may vary slightly from our data, if they occured in-between our weather recording intervals... More about our weather records

Advertising

Bimbo weather history for previous 24 hours

 ConditionsComfort  
Time TempWeatherWind HumidityBarometerVisibility
8:00 PM
Sun, Jul 5
77 °FPassing clouds.3 mph89%29.92 "HgN/A
7:00 PM79 °FThunderstorms. Passing clouds.3 mph84%29.89 "HgN/A
6:00 PM82 °FThunderstorms. Broken clouds.6 mph74%29.89 "HgN/A
5:00 PM86 °FThunderstorms. Broken clouds.10 mph66%29.89 "HgN/A
4:00 PM88 °FScattered clouds.3 mph62%29.86 "HgN/A
2:00 PM88 °FPartly sunny.3 mph62%29.89 "HgN/A
1:00 PM88 °FPartly sunny.2 mph62%29.92 "HgN/A
12:00 PM84 °FScattered clouds.3 mph74%29.95 "HgN/A
11:00 AM82 °FBroken clouds.2 mph79%29.98 "HgN/A
10:00 AM79 °FMostly cloudy.2 mph84%30.01 "HgN/A
8:00 AM77 °FPartly sunny.2 mph89%30.01 "HgN/A
7:00 AM75 °FPartly sunny.No wind94%29.98 "HgN/A
6:00 AM73 °FPartly sunny.2 mph94%29.95 "HgN/A
5:00 AM73 °FLight rain. Clear.2 mph100%29.95 "Hg4 mi
4:00 AM73 °FClear.No wind94%29.92 "Hg10 mi
3:00 AM73 °FClear.3 mph94%29.95 "Hg10 mi
2:00 AM73 °FClear.3 mph94%29.95 "Hg10 mi
1:00 AM75 °FClear.5 mph94%29.95 "Hg10 mi
12:00 AM75 °FClear.6 mph94%29.95 "Hg10 mi
11:00 PM
Sat, Jul 4
75 °FClear.2 mph94%29.95 "Hg4 mi
10:00 PM77 °FFog.3 mph94%29.95 "Hg2 mi
Weather by CustomWeather, © 2015

See weather overviewHow to use our weather pages